When you browse on this site, cookies collect data to enhance your experience and personalize the content and advertising you see.
Visit our Privacy Policy to learn more. By continuing to use the site, you agree to this use of cookies and data.
  • In Czech Republic
  • List of Countries
  • For 7 days
  • Water Temperature
  • Weather Map
  • Weather Widgets
  • user-avatar
    Login

    Hourly Weather Mauritius

    Today, 14 December, Saturday

    Time Temperature Precipitation Wind Pressure Humidity
    00:00 +26°C° 0.2 mm 3 mps 723 mmHg 80%
    01:00 +26°C° 0.2 mm 3 mps 722 mmHg 80%
    02:00 +26°C° 0.1 mm 3 mps 722 mmHg 80%
    03:00 +26°C° 0.1 mm 2 mps 722 mmHg 80%
    04:00 +26°C° 0 mm 3 mps 722 mmHg 81%
    05:00 +26°C° 0 mm 3 mps 723 mmHg 79%
    06:00 +26°C° 0 mm 3 mps 723 mmHg 78%
    07:00 +27°C° 0 mm 3 mps 723 mmHg 76%
    08:00 +28°C° 0 mm 3 mps 723 mmHg 71%
    09:00 +29°C° 0 mm 3 mps 723 mmHg 67%
    10:00 +30°C° 0 mm 4 mps 724 mmHg 62%
    11:00 +30°C° 0.1 mm 4 mps 723 mmHg 62%
    12:00 +30°C° 0.1 mm 4 mps 723 mmHg 62%
    13:00 +30°C° 0.1 mm 4 mps 723 mmHg 63%
    14:00 +30°C° 0.1 mm 4 mps 723 mmHg 63%
    15:00 +29°C° 0.1 mm 4 mps 722 mmHg 64%
    16:00 +29°C° 0.1 mm 4 mps 722 mmHg 65%
    17:00 +28°C° 0 mm 4 mps 722 mmHg 68%
    18:00 +28°C° 0 mm 3 mps 722 mmHg 70%
    19:00 +27°C° 0 mm 3 mps 722 mmHg 73%
    20:00 +27°C° 0 mm 3 mps 723 mmHg 75%
    21:00 +27°C° 0 mm 3 mps 723 mmHg 76%
    22:00 +26°C° 0 mm 3 mps 723 mmHg 78%
    23:00 +26°C° 0 mm 3 mps 723 mmHg 79%

    Tomorrow, 15 December, Sunday

    Time Temperature Precipitation Wind Pressure Humidity
    00:00 +26°C° 0 mm 2 mps 722 mmHg 80%
    01:00 +26°C° 0 mm 2 mps 722 mmHg 81%
    02:00 +26°C° 0 mm 2 mps 722 mmHg 82%
    03:00 +25°C° 0 mm 2 mps 722 mmHg 83%
    04:00 +25°C° 0 mm 2 mps 721 mmHg 83%
    05:00 +25°C° 0 mm 2 mps 722 mmHg 81%
    06:00 +26°C° 0 mm 2 mps 722 mmHg 79%
    07:00 +26°C° 0 mm 2 mps 722 mmHg 77%
    08:00 +27°C° 0 mm 3 mps 722 mmHg 73%
    09:00 +28°C° 0 mm 3 mps 722 mmHg 68%
    10:00 +30°C° 0 mm 4 mps 723 mmHg 64%
    11:00 +29°C° 0.2 mm 4 mps 722 mmHg 66%
    12:00 +29°C° 0.2 mm 4 mps 722 mmHg 67%
    13:00 +29°C° 0.2 mm 5 mps 721 mmHg 69%
    14:00 +28°C° 0.5 mm 4 mps 721 mmHg 70%
    15:00 +28°C° 0.5 mm 4 mps 720 mmHg 72%
    16:00 +28°C° 0.5 mm 4 mps 720 mmHg 74%
    17:00 +27°C° 0.4 mm 3 mps 720 mmHg 74%
    18:00 +27°C° 0.4 mm 3 mps 720 mmHg 75%
    19:00 +27°C° 0.4 mm 2 mps 720 mmHg 75%
    20:00 +26°C° 0.1 mm 3 mps 721 mmHg 75%
    21:00 +26°C° 0.1 mm 3 mps 721 mmHg 76%
    22:00 +26°C° 0.1 mm 3 mps 721 mmHg 76%
    23:00 +26°C° 0 mm 3 mps 721 mmHg 77%

    Day after tomorrow, 16 December, Monday

    Time Temperature Precipitation Wind Pressure Humidity
    00:00 +26°C° 0 mm 3 mps 720 mmHg 77%
    01:00 +26°C° 0 mm 3 mps 720 mmHg 78%
    02:00 +25°C° 0 mm 3 mps 720 mmHg 78%
    03:00 +25°C° 0 mm 2 mps 719 mmHg 79%
    04:00 +25°C° 0 mm 2 mps 719 mmHg 80%
    05:00 +25°C° 0 mm 2 mps 719 mmHg 78%
    06:00 +26°C° 0 mm 2 mps 719 mmHg 76%
    07:00 +26°C° 0 mm 2 mps 720 mmHg 74%
    08:00 +27°C° 0 mm 3 mps 720 mmHg 69%
    09:00 +28°C° 0 mm 3 mps 720 mmHg 64%
    10:00 +29°C° 0 mm 3 mps 720 mmHg 59%
    11:00 +29°C° 0 mm 3 mps 720 mmHg 60%
    12:00 +29°C° 0 mm 3 mps 720 mmHg 61%
    13:00 +29°C° 0 mm 3 mps 719 mmHg 62%
    14:00 +29°C° 0 mm 3 mps 719 mmHg 63%
    15:00 +29°C° 0 mm 3 mps 719 mmHg 63%
    16:00 +29°C° 0 mm 3 mps 719 mmHg 64%
    17:00 +28°C° 0.1 mm 2 mps 719 mmHg 67%
    18:00 +28°C° 0.1 mm 2 mps 719 mmHg 71%
    19:00 +27°C° 0.1 mm 2 mps 719 mmHg 74%
    20:00 +27°C° 0.1 mm 1 mps 720 mmHg 75%
    21:00 +27°C° 0.1 mm 1 mps 720 mmHg 76%
    22:00 +27°C° 0.1 mm 1 mps 720 mmHg 77%
    23:00 +26°C° 0 mm 1 mps 720 mmHg 78%

    17 December, Tuesday

    Time Temperature Precipitation Wind Pressure Humidity
    00:00 +26°C° 0 mm 1 mps 719 mmHg 79%
    01:00 +26°C° 0 mm 1 mps 719 mmHg 80%
    02:00 +26°C° 0.2 mm 1 mps 719 mmHg 80%
    03:00 +26°C° 0.2 mm 1 mps 719 mmHg 81%
    04:00 +23°C° 0.2 mm 0 mps 719 mmHg 82%
    05:00 +26°C° 0 mm 1 mps 719 mmHg 80%
    06:00 +26°C° 0 mm 1 mps 719 mmHg 78%
    07:00 +26°C° 0 mm 1 mps 720 mmHg 77%
    08:00 +27°C° 0 mm 2 mps 720 mmHg 74%
    09:00 +28°C° 0 mm 2 mps 720 mmHg 72%
    10:00 +28°C° 0 mm 2 mps 720 mmHg 70%
    11:00 +28°C° 0.4 mm 2 mps 720 mmHg 70%
    12:00 +28°C° 0.4 mm 2 mps 720 mmHg 70%
    13:00 +28°C° 0.4 mm 2 mps 720 mmHg 70%
    14:00 +28°C° 0.9 mm 3 mps 720 mmHg 71%
    15:00 +28°C° 0.9 mm 3 mps 720 mmHg 71%
    16:00 +28°C° 0.9 mm 3 mps 719 mmHg 72%
    17:00 +27°C° 1 mm 3 mps 720 mmHg 73%
    18:00 +27°C° 1 mm 2 mps 720 mmHg 74%
    19:00 +27°C° 1 mm 2 mps 721 mmHg 75%
    20:00 +27°C° 0.3 mm 2 mps 721 mmHg 77%
    21:00 +26°C° 0.3 mm 2 mps 721 mmHg 78%
    22:00 +26°C° 0.3 mm 2 mps 721 mmHg 79%
    23:00 +26°C° 0 mm 2 mps 721 mmHg 80%

    18 December, Wednesday

    Time Temperature Precipitation Wind Pressure Humidity
    00:00 +26°C° 0 mm 2 mps 721 mmHg 81%
    01:00 +26°C° 0 mm 2 mps 720 mmHg 82%
    02:00 +25°C° 0 mm 2 mps 720 mmHg 82%
    03:00 +25°C° 0 mm 2 mps 720 mmHg 82%
    04:00 +25°C° 0 mm 2 mps 720 mmHg 81%
    05:00 +26°C° 0.1 mm 2 mps 720 mmHg 80%
    06:00 +26°C° 0.1 mm 2 mps 721 mmHg 78%
    07:00 +26°C° 0.1 mm 2 mps 721 mmHg 77%
    08:00 +27°C° 0 mm 2 mps 721 mmHg 74%
    09:00 +27°C° 0 mm 2 mps 722 mmHg 71%
    10:00 +28°C° 0 mm 2 mps 722 mmHg 67%
    11:00 +28°C° 0.1 mm 2 mps 722 mmHg 68%
    12:00 +28°C° 0.1 mm 3 mps 721 mmHg 68%
    13:00 +28°C° 0.1 mm 3 mps 721 mmHg 69%
    14:00 +28°C° 0.1 mm 3 mps 721 mmHg 70%
    15:00 +28°C° 0.1 mm 3 mps 720 mmHg 71%
    16:00 +27°C° 0.1 mm 3 mps 720 mmHg 71%
    17:00 +27°C° 0 mm 3 mps 721 mmHg 72%
    18:00 +27°C° 0 mm 3 mps 721 mmHg 73%
    19:00 +26°C° 0 mm 4 mps 721 mmHg 74%
    20:00 +26°C° 0 mm 4 mps 721 mmHg 75%
    21:00 +26°C° 0 mm 4 mps 722 mmHg 76%
    22:00 +26°C° 0 mm 4 mps 722 mmHg 77%
    23:00 +25°C° 0 mm 4 mps 721 mmHg 77%

    19 December, Thursday

    Time Temperature Precipitation Wind Pressure Humidity
    00:00 +25°C° 0 mm 3 mps 721 mmHg 78%
    01:00 +25°C° 0 mm 3 mps 721 mmHg 79%
    02:00 +25°C° 0 mm 3 mps 721 mmHg 79%
    03:00 +25°C° 0 mm 3 mps 721 mmHg 80%
    04:00 +24°C° 0 mm 3 mps 720 mmHg 80%
    05:00 +25°C° 0 mm 3 mps 721 mmHg 77%
    06:00 +25°C° 0 mm 3 mps 721 mmHg 74%
    07:00 +26°C° 0 mm 3 mps 722 mmHg 72%
    08:00 +26°C° 0 mm 3 mps 722 mmHg 69%
    09:00 +27°C° 0 mm 3 mps 722 mmHg 67%
    10:00 +28°C° 0 mm 3 mps 722 mmHg 64%
    11:00 +28°C° 0 mm 3 mps 722 mmHg 65%
    12:00 +28°C° 0 mm 3 mps 721 mmHg 65%
    13:00 +29°C° 0 mm 3 mps 721 mmHg 65%
    14:00 +28°C° 0.1 mm 3 mps 721 mmHg 67%
    15:00 +28°C° 0.1 mm 3 mps 720 mmHg 69%
    16:00 +27°C° 0.1 mm 3 mps 720 mmHg 71%
    17:00 +27°C° 0.2 mm 4 mps 720 mmHg 73%
    18:00 +27°C° 0.2 mm 4 mps 721 mmHg 76%
    19:00 +26°C° 0.2 mm 4 mps 721 mmHg 78%
    20:00 +26°C° 0.3 mm 4 mps 721 mmHg 78%
    21:00 +26°C° 0.3 mm 4 mps 721 mmHg 78%
    22:00 +26°C° 0.3 mm 4 mps 721 mmHg 78%
    23:00 +26°C° 0.2 mm 4 mps 721 mmHg 80%
    Show more